This demonstration page uses our WeatherBlox Daily Observations layout. Learn more.

Left ArrowRight Arrow

38.20091, -84.87328

Hourly Observations for August 22, 2018

Temp ( °F °C ) Dew Point ( °F °C ) Humidity (%) Winds ( mph kmh ) Pressure ( in mb ) Visibility ( mi km ) Precip ( " mm )
12:12 am 00:12 Cloudy 71 21.7 69 20.6 94 94 WSW 3 6 29.94 1014 10 16 0.00 0.00
12:53 am 00:53 Cloudy 71 21.7 69 20.6 94 94 WNW 3 6 29.94 1014 10 16 0.00 0.00
1:03 am 01:03 Cloudy 71 21.7 69 20.6 94 94 Calm 29.94 1014 10 16 0.00 0.00
1:19 am 01:19 Partly Cloudy 71 21.7 68 20 90 90 WNW 5 7 29.94 1014 10 16 0.00 0.00
1:53 am 01:53 Mostly Clear 70 21.1 68 20 93 93 W 5 7 29.95 1014 10 16 0.00 0.00
2:53 am 02:53 Cloudy 70 21.1 68 20 93 93 W 5 7 29.95 1014 10 16 0.00 0.00
3:36 am 03:36 Cloudy 70 21.1 67 19.4 90 90 WNW 6 9 29.94 1014 10 16 0.00 0.00
3:53 am 03:53 Cloudy 70 21.1 67 19.4 90 90 VRB 3 6 29.95 1014 10 16 0.00 0.00
4:34 am 04:34 Cloudy 69 20.6 66 18.9 90 90 NW 3 6 29.94 1014 9 14 0.00 0.00
4:53 am 04:53 Partly Cloudy 68 20 65 18.3 90 90 NW 5 7 29.96 1015 8 13 0.00 0.00
5:53 am 05:53 Mostly Clear 67 19.4 65 18.3 93 93 WNW 3 6 29.99 1016 8 13 0.00 0.00
6:29 am 06:29 Mostly Cloudy 67 19.4 65 18.3 93 93 VRB 3 6 30.03 1017 7 11 0.00 0.00
6:39 am 06:39 Partly Cloudy 67 19.4 65 18.3 93 93 WNW 5 7 30.03 1017 7 11 0.00 0.00
6:53 am 06:53 Mostly Clear with Mist and Fog 66 18.9 64 17.8 93 93 WNW 3 6 30.00 1016 6 10 0.00 0.00
7:53 am 07:53 Partly Cloudy with Mist and Fog 66 18.9 64 17.8 93 93 Calm 30.02 1017 5 8 0.00 0.00
8:07 am 08:07 Mostly Cloudy with Mist and Fog 67 19.4 64 17.8 91 91 Calm 30.03 1017 5 8 0.00 0.00
8:34 am 08:34 Partly Cloudy with Mist and Fog 67 19.4 65 18.3 93 93 VRB 5 7 30.06 1018 5 8 0.00 0.00
8:53 am 08:53 Mostly Cloudy with Mist and Fog 68 20 65 18.3 90 90 NW 7 11 30.04 1017 6 10 0.00 0.00
9:18 am 09:18 Partly Cloudy 69 20.6 65 18.3 87 87 NNW 7 11 30.03 1017 8 13 0.00 0.00
9:49 am 09:49 Mostly Cloudy 70 21 64 18 83 83 NW 9 15 30.03 1017 10 16 0.00 0.00
9:53 am 09:53 Mostly Cloudy 70 21.1 64 17.8 82 82 NW 6 9 30.04 1017 10 16 0.00 0.00
10:29 am 10:29 Partly Cloudy 72 22.2 65 18.3 79 79 NNW 8 13 30.06 1018 10 16 0.00 0.00
10:53 am 10:53 Mostly Cloudy 72 22.2 64 17.8 76 76 NW 7 11 30.06 1018 10 16 0.00 0.00
11:29 am 11:29 Mostly Cloudy 73 22.8 63 17.2 71 71 NNW 7 11 30.06 1018 10 16 0.00 0.00
11:43 am 11:43 Cloudy 73 22.8 64 17.8 74 74 NNW 9 15 30.06 1018 10 16 0.00 0.00
11:53 am 11:53 Cloudy 73 22.8 64 17.8 74 74 NNW 8 13 30.06 1018 10 16 0.00 0.00
12:53 pm 12:53 Cloudy 74 23.3 64 17.8 71 71 NW 9 15 30.06 1018 10 16 0.00 0.00
1:53 pm 13:53 Mostly Sunny 77 25 64 17.8 64 64 NNW 9 15 30.06 1018 10 16 0.00 0.00
2:53 pm 14:53 Mostly Cloudy 76 24.4 62 16.7 62 62 NNW 10 17 30.05 1018 10 16 0.00 0.00
3:53 pm 15:53 Partly Cloudy 77 25 61 16.1 58 58 N 10 17 30.04 1017 10 16 0.00 0.00
4:53 pm 16:53 Mostly Sunny 76 24.4 58 14.4 54 54 NW 13 20 30.04 1017 10 16 0.00 0.00
5:53 pm 17:53 Sunny 77 25 55 12.8 47 47 N 10 17 30.05 1018 10 16 0.00 0.00
6:53 pm 18:53 Sunny 76 24.4 55 12.8 48 48 NNW 9 15 30.06 1018 10 16 0.00 0.00
7:53 pm 19:53 Sunny 72 22.2 54 12.2 53 53 NNW 8 13 30.08 1019 10 16 0.00 0.00
8:53 pm 20:53 Clear 64 17.8 57 13.9 78 78 Calm 30.09 1019 10 16 0.00 0.00
9:53 pm 21:53 Clear 62 16.7 57 13.9 84 84 Calm 30.11 1020 10 16 0.00 0.00
10:53 pm 22:53 Partly Cloudy 61 16.1 57 13.9 87 87 NNW 3 6 30.12 1020 10 16 0.00 0.00
11:53 pm 23:53 Clear 60 15.6 57 13.9 90 90 Calm 30.11 1020 10 16 0.00 0.00

Powered by AerisWeather